sat.trackr.live / text

‹ back to catalog

STARLINK-2424

NORAD 47834 · 2021-018AZ

PAYLOAD ACTIVE UNKNOWN

§ Identity

Operator
Country
US
Launch date
2021-03-11
Launch site
AFETR
Launch vehicle
Mass (kg)
RCS (m²)

Purposes: comms

External: N2YO · Heavens-Above · Gunter

§ Orbital elements

Epoch: 2026-05-24T18:36:07.555680Z

Period
94.01 min
Inclination
53.1586°
Eccentricity
0.0001086
Mean motion
15.31733367 rev/d
Perigee alt
469.9 km
Apogee alt
471.4 km
Semi-major
6,848.8 km
B*
2.9806e-4
RAAN
251.1774°
Arg perigee
74.4306°
Mean anomaly
285.6815°
Rev number
28,840

§ Raw data

STARLINK-24241 47834U 21018AZ  26144.77508745  .00008905  00000+0  29806-3 0  99972 47834  53.1586 251.1774 0001086  74.4306 285.6815 15.31733367288408

JSON: /api/v1/satellites/47834 · /tle

For live sub-satellite position, see the globe view (requires WebGL).

§ Visibility from observer

Set your observer location to see the next 7 days of passes ≥ 10°. The values pass through the URL so the page stays shareable.

No JS? Fill the form by hand. The geolocation button needs JavaScript.